This is the latest recevied weather packets stored in our database for station/object E20ZNR-1. If no packets are shown the sender has not sent any weather packets the latest 10 day(s).
| Time | Temp. | Humidity | Pressure | Rain* | Wind** | Luminosity | Snow |
|---|---|---|---|---|---|---|---|
| 1777705839 | 40.56° C | 45% | 1003 hPa | - | - | 0 W/m² | - |
| 1777704914 | 40° C | 47% | 1003 hPa | - | - | 0 W/m² | - |
| 1777703989 | 39.44° C | 50% | 1003 hPa | - | - | 0 W/m² | - |
| 1777703064 | 38.89° C | 51% | 1004 hPa | - | - | 0 W/m² | - |
| 1777702139 | 37.78° C | 51% | 1004 hPa | - | - | 0 W/m² | - |
| 1777701214 | 37.78° C | 50% | 1004 hPa | - | - | 0 W/m² | - |
| 1777700288 | 38.33° C | 49% | 1005 hPa | - | - | 0 W/m² | - |
| 1777699364 | 39.44° C | 46% | 1005 hPa | - | - | 0 W/m² | - |
| 1777698438 | 40° C | 46% | 1005 hPa | - | - | 0 W/m² | - |
| 1777697513 | 41.11° C | 45% | 1005 hPa | - | - | 0 W/m² | - |
| 1777696589 | 40.56° C | 44% | 1005 hPa | - | - | 0 W/m² | - |
| 1777695664 | 40.56° C | 45% | 1006 hPa | - | - | 0 W/m² | - |
| 1777694738 | 38.89° C | 52% | 1006 hPa | - | - | 0 W/m² | - |
| 1777693813 | 40.56° C | 47% | 1006 hPa | - | - | 0 W/m² | - |
| 1777692889 | 40.56° C | 47% | 1006 hPa | - | - | 0 W/m² | - |
| 1777691964 | 40.56° C | 46% | 1006 hPa | - | - | 0 W/m² | - |
| 1777691039 | 38.89° C | 45% | 1006 hPa | - | - | 0 W/m² | - |
| 1777690113 | 39.44° C | 50% | 1006 hPa | - | - | 0 W/m² | - |
| 1777689189 | 39.44° C | 47% | 1007 hPa | - | - | 0 W/m² | - |
| 1777688263 | 39.44° C | 49% | 1007 hPa | - | - | 0 W/m² | - |
| 1777687339 | 39.44° C | 49% | 1007 hPa | - | - | 0 W/m² | - |
| 1777686413 | 45.56° C | 36% | 1006 hPa | - | - | 0 W/m² | - |
| 1777685488 | 48.33° C | 35% | 1006 hPa | - | - | 0 W/m² | - |
| 1777684563 | 43.33° C | 42% | 1006 hPa | - | - | 0 W/m² | - |
| 1777683639 | 44.44° C | 41% | 1006 hPa | - | - | 0 W/m² | - |
* Rain since midnight (hover to see other rain measurements)
** Current wind speed in m/s (hover to see current wind gust speed)